Regional Weather Roundup
Issued by NWS

Home | Current Version | Previous Version | Text Only | Print | Product List | Glossary Off
Versions: 1 2 3 4 5 6 7 8 9 10 11 12 13 14 15 16 17 18 19 20 21 22 23 24 25 26 27 28 29 30 31 32 33 34 35 36 37 38 39 40 41 42 43 44 45 46 47 48 49 50

984
ASUS43 KOAX 290210
RWRNE

WEATHER ROUNDUP FOR NEBRASKA
NATIONAL WEATHER SERVICE OMAHA NE
900 PM CDT THU JUL 28 2016

NOTES: SATELLITE DATA IS BEING USED TO AUGMENT CLOUD COVER ABOVE
       12000 FEET.
       "FAIR" INDICATES FEW OR NO CLOUDS BELOW 12,000 FEET WITH NO
       SIGNIFICANT WEATHER AND/OR OBSTRUCTIONS TO VISIBILITY.

  * THESE STATIONS DO NOT REPORT WEATHER SUCH AS RAIN...SNOW OR FOG.

NEZ001>004-019>022-054>056-290300-
NEBRASKA PANHANDLE

CITY           SKY/WX    TMP DP  RH WIND       PRES   REMARKS
SCOTTSBLUFF    PTCLDY    74  61  63 E8        30.15R
ALLIANCE       CLEAR     73  56  54 N3        30.14R
CHADRON        CLEAR     73  56  54 NE8       30.11R
KIMBALL        MOCLDY    69  55  61 E6        30.21S
SIDNEY         CLOUDY    71  54  54 E7        30.18F
$$

NEZ057>060-069>072-079>082-290300-
SOUTHWEST NEBRASKA

CITY           SKY/WX    TMP DP  RH WIND       PRES   REMARKS
NORTH PLATTE   CLEAR     69  64  84 CALM      30.10R
IMPERIAL       PTCLDY    70  62  76 E5        30.13R
LEXINGTON      CLEAR     70  65  83 W3        30.07R
MCCOOK         CLEAR     68  61  78 N6        30.08S
OGALLALA       PTCLDY    72  62  70 CALM      30.12R
$$

NEZ005>010-023>029-035>040-094-290300-
NORTH CENTRAL NEBRASKA

CITY           SKY/WX    TMP DP  RH WIND       PRES   REMARKS
VALENTINE      RAIN      64  61  90 NE14      30.12R FOG
AINSWORTH      MOCLDY    64  62  93 E6        30.10S
BROKEN BOW     MOCLDY    71  66  84 E5        30.06S
O`NEILL        LGT RAIN  71  66  85 NW6       30.07R
ORD            CLOUDY    72  63  73 CALM      30.04R
THEDFORD       CLEAR     71  61  71 CALM      30.10S
$$

NEZ041-046>049-061>064-073>077-083>087-290300-
SOUTH CENTRAL NEBRASKA

CITY           SKY/WX    TMP DP  RH WIND       PRES   REMARKS
GRAND ISLAND   CLOUDY    72  67  84 NE7       30.03R
AURORA         MOCLDY    71  69  93 NE5       30.02R
HASTINGS       MOCLDY    70  66  87 NE7       30.03R
HEBRON         CLOUDY    74  68  81 NE5       29.98R
HOLDREGE       CLOUDY    69  67  93 CALM      30.06R
KEARNEY *      CLOUDY    70  12  11 CALM      30.06R
YORK           CLOUDY    72  64  78 NE6       30.02R
$$

NEZ011>018-030>034-042>045-290300-
NORTHEAST NEBRASKA

CITY           SKY/WX    TMP DP  RH WIND       PRES   REMARKS
NORFOLK        CLOUDY    75  59  57 NE8       30.01F
ALBION         LGT RAIN  71  64  78 NE3       30.03S
BLAIR          CLOUDY    73  64  72 NE5       30.00S
FREMONT        CLOUDY    75  63  66 NE5       30.00S
TEKAMAH        CLOUDY    74  64  71 NE6       29.99F
WAYNE          CLOUDY    71  67  85 CALM      30.02S
$$

NEZ050>053-065>068-078-088>093-290300-
SOUTHEAST NEBRASKA

CITY           SKY/WX    TMP DP  RH WIND       PRES   REMARKS
LINCOLN        CLOUDY    75  63  66 NE7       30.00S
OMAHA EPPLEY   CLOUDY    76  63  64 NE9       29.98F
BEATRICE       CLOUDY    77  65  65 NE7       29.98R
FALLS CITY     MOCLDY    77  68  73 CALM      29.97R
NEBRASKA CITY  CLOUDY    74  64  70 NE6       29.99S
PLATTSMOUTH    CLOUDY    74  64  72 NE5       29.99S
$$

NEZ044-045-051>053-067-290300-
OMAHA AREA

CITY           SKY/WX    TMP DP  RH WIND       PRES   REMARKS
OMAHA EPPLEY   CLOUDY    76  63  64 NE9       29.98F
BLAIR          CLOUDY    73  64  72 NE5       30.00S
FREMONT        CLOUDY    75  63  66 NE5       30.00S
MILLARD        CLOUDY    77  63  61 NE3       29.98S
PLATTSMOUTH    CLOUDY    74  64  72 NE5       29.99S
WAHOO          FAIR      73  65  78 CALM      30.00R
$$




USA.gov is the U.S. government's official web portal to all federal, state and local government web resources and services.